Location: Newark
(27.9675°N, 86.8869°E)
Time: 13:37:16
(UTC+00:00)

Vanguard 1 Rocket - Visible Passes

Search period start: 15 October 2019 00:00
Search period end: 25 October 2019 00:00
Orbit: 650 x 4226 km, 34.3° (Epoch: 13 October)

Date Brightness Start Highest point End Pass type
(mag) Time Alt. Az. Time Alt. Az. Time Alt. Az.
15 Oct 10.7 12:21:16 10° WNW 12:46:15 60° SW 13:02:06 10° SE visible
15 Oct 11.0 15:02:06 10° W 15:12:54 17° WSW 15:21:04 10° SSW visible
16 Oct 10.9 13:41:38 10° WNW 14:01:02 33° SW 14:13:52 10° S visible
17 Oct 10.9 12:24:04 10° WNW 12:48:13 51° SW 13:04:17 10° SSE visible
17 Oct 11.3 15:09:41 10° WSW 15:14:46 11° WSW 15:19:14 10° SW visible
18 Oct 11.1 13:45:31 10° W 14:02:48 26° SW 14:15:07 10° S visible
19 Oct 11.1 12:27:06 10° WNW 12:50:03 42° SW 13:06:11 10° SSE visible
20 Oct 11.4 13:50:18 10° W 14:04:34 20° SW 14:15:37 10° SSW visible
21 Oct 11.3 12:30:29 10° WNW 12:51:49 35° SW 13:07:44 10° S visible
22 Oct 11.6 13:56:59 10° W 14:06:27 14° SW 14:14:32 10° SSW visible
23 Oct 11.5 12:34:24 10° W 12:53:35 28° SW 13:08:47 10° S visible
24 Oct 11.5 11:16:52 10° WNW 11:39:58 43° SW 11:59:19 10° SSE visible
